Private Wetterstation Wechselburg
Wetterdaten: Sonntag, 30.09.2012
Datum Zeit Temp. +2m Bodentemp. Temp.+5cm Temp. Wind Windchill X Diff Temp. Feuchte +2m Feuchte +5cm Sonnenschein Luftdruck Regen Wind Richtung Richtung Sonnenschein UV Taupunkt Windchill Windben
30.09.2012 00:00 9,3 C 19,4 C 9,3 C 8,8 C 7,9 C 0,0 C 79 % 83 % 0 % 1019,3 hPa 0,0 l/m 0,0 km/h (0 Bft) O 90 0 min 0,0 UV-I 5,8 C 7,9 C 0,0 km/h (0 Bft)
30.09.2012 00:05 9,2 C 19,4 C 9,3 C 8,7 C 7,8 C 0,0 C 79 % 83 % 0 % 1019,6 hPa 0,0 l/m 0,0 km/h (0 Bft) O 90 0 min 0,0 UV-I 5,8 C 7,8 C 0,0 km/h (0 Bft)
30.09.2012 00:10 9,0 C 19,4 C 9,3 C 8,6 C 7,7 C 0,0 C 79 % 83 % 0 % 1019,6 hPa 0,0 l/m 0,0 km/h (0 Bft) O 90 0 min 0,0 UV-I 5,6 C 7,7 C 0,0 km/h (0 Bft)
30.09.2012 00:15 8,9 C 19,4 C 9,1 C 8,5 C 7,6 C 0,0 C 80 % 84 % 0 % 1019,6 hPa 0,0 l/m 0,2 km/h (0 Bft) O-NO 67 0 min 0,0 UV-I 5,6 C 7,6 C 2,1 km/h (1 Bft)
30.09.2012 00:20 8,7 C 19,4 C 8,9 C 8,3 C 7,5 C 0,0 C 80 % 84 % 0 % 1019,6 hPa 0,0 l/m 0,2 km/h (0 Bft) O-SO 112 0 min 0,0 UV-I 5,4 C 7,5 C 0,0 km/h (0 Bft)
30.09.2012 00:25 8,4 C 19,4 C 8,9 C 8,0 C 7,2 C 0,0 C 80 % 84 % 0 % 1020,1 hPa 0,0 l/m 0,3 km/h (0 Bft) W-SW 247 0 min 0,0 UV-I 5,2 C 7,2 C 1,9 km/h (1 Bft)
30.09.2012 00:30 8,1 C 19,4 C 8,8 C 7,7 C 6,9 C 0,0 C 80 % 84 % 0 % 1020,1 hPa 0,0 l/m 0,3 km/h (0 Bft) W 270 0 min 0,0 UV-I 4,9 C 6,9 C 2,3 km/h (1 Bft)
30.09.2012 00:35 7,9 C 19,4 C 8,7 C 7,5 C 6,8 C 0,0 C 81 % 84 % 0 % 1020,1 hPa 0,0 l/m 0,3 km/h (0 Bft) W 270 0 min 0,0 UV-I 4,8 C 6,8 C 0,0 km/h (0 Bft)
30.09.2012 00:41 7,6 C 19,5 C 8,4 C 7,2 C 6,4 C 0,0 C 81 % 85 % 0 % 1019,8 hPa 0,0 l/m 0,0 km/h (0 Bft) N 0 0 min 0,0 UV-I 4,6 C 6,4 C 0,0 km/h (0 Bft)
30.09.2012 00:55 7,2 C 19,6 C 8,3 C 7,0 C 6,6 C 0,0 C 82 % 86 % 0 % 1019,8 hPa 0,0 l/m 0,5 km/h (0 Bft) O 90 0 min 0,0 UV-I 4,3 C 6,6 C 0,0 km/h (0 Bft)
30.09.2012 01:00 7,1 C 19,6 C 8,3 C 7,0 C 6,7 C 0,0 C 83 % 86 % 0 % 1019,8 hPa 0,0 l/m 0,5 km/h (0 Bft) O-SO 112 0 min 0,0 UV-I 4,4 C 6,7 C 0,0 km/h (0 Bft)
30.09.2012 01:05 7,0 C 19,5 C 8,3 C 6,8 C 6,5 C 0,0 C 83 % 86 % 0 % 1020,1 hPa 0,0 l/m 0,0 km/h (0 Bft) W-SW 247 0 min 0,0 UV-I 4,3 C 6,5 C 0,0 km/h (0 Bft)
30.09.2012 01:10 6,8 C 19,5 C 8,1 C 6,7 C 6,4 C 0,0 C 83 % 86 % 0 % 1020,1 hPa 0,0 l/m 0,3 km/h (0 Bft) W-SW 247 0 min 0,0 UV-I 4,1 C 6,4 C 0,0 km/h (0 Bft)
30.09.2012 01:15 6,7 C 19,5 C 8,0 C 6,6 C 6,3 C 0,0 C 83 % 86 % 0 % 1020,1 hPa 0,0 l/m 0,3 km/h (0 Bft) W 270 0 min 0,0 UV-I 4,0 C 6,3 C 0,0 km/h (0 Bft)
30.09.2012 01:20 6,6 C 19,5 C 7,9 C 6,5 C 6,3 C 0,0 C 84 % 86 % 0 % 1020,1 hPa 0,0 l/m 0,2 km/h (0 Bft) O 90 0 min 0,0 UV-I 4,1 C 6,3 C 0,0 km/h (0 Bft)
30.09.2012 01:25 6,5 C 19,6 C 7,9 C 6,5 C 6,4 C 0,0 C 84 % 86 % 0 % 1020,3 hPa 0,0 l/m 0,3 km/h (0 Bft) O-NO 67 0 min 0,0 UV-I 4,0 C 6,4 C 1,8 km/h (1 Bft)
30.09.2012 01:30 6,5 C 19,6 C 7,9 C 6,5 C 6,5 C 0,0 C 85 % 87 % 0 % 1020,3 hPa 0,0 l/m 0,3 km/h (0 Bft) O 90 0 min 0,0 UV-I 4,2 C 6,5 C 0,0 km/h (0 Bft)
30.09.2012 01:35 6,6 C 19,5 C 7,9 C 6,6 C 6,5 C 0,0 C 85 % 87 % 0 % 1020,3 hPa 0,0 l/m 0,3 km/h (0 Bft) O-NO 67 0 min 0,0 UV-I 4,3 C 6,5 C 0,0 km/h (0 Bft)
30.09.2012 01:40 6,6 C 19,5 C 7,9 C 6,6 C 6,5 C 0,0 C 85 % 87 % 0 % 1020,3 hPa 0,0 l/m 0,0 km/h (0 Bft) O-NO 67 0 min 0,0 UV-I 4,3 C 6,5 C 0,0 km/h (0 Bft)
30.09.2012 01:45 6,5 C 19,5 C 7,7 C 6,5 C 6,4 C 0,0 C 85 % 87 % 0 % 1020,1 hPa 0,0 l/m 0,0 km/h (0 Bft) W 270 0 min 0,0 UV-I 4,2 C 6,4 C 0,0 km/h (0 Bft)
30.09.2012 01:50 6,4 C 19,5 C 7,7 C 6,4 C 6,3 C 0,0 C 85 % 87 % 0 % 1020,1 hPa 0,0 l/m 0,0 km/h (0 Bft) SW 225 0 min 0,0 UV-I 4,1 C 6,3 C 0,0 km/h (0 Bft)
30.09.2012 01:55 6,4 C 19,5 C 7,6 C 6,3 C 6,2 C 0,0 C 85 % 87 % 0 % 1020,1 hPa 0,0 l/m 0,0 km/h (0 Bft) SW 225 0 min 0,0 UV-I 4,1 C 6,2 C 0,0 km/h (0 Bft)
30.09.2012 02:00 6,2 C 19,4 C 7,5 C 6,1 C 6,0 C 0,0 C 85 % 87 % 0 % 1020,1 hPa 0,0 l/m 0,0 km/h (0 Bft) SW 225 0 min 0,0 UV-I 3,9 C 6,0 C 0,0 km/h (0 Bft)
30.09.2012 02:05 6,3 C 19,4 C 7,4 C 6,2 C 5,9 C 0,0 C 85 % 87 % 0 % 1020,4 hPa 0,0 l/m 0,0 km/h (0 Bft) W 270 0 min 0,0 UV-I 4,0 C 5,9 C 0,0 km/h (0 Bft)
30.09.2012 02:10 6,0 C 19,3 C 7,3 C 5,9 C 5,8 C 0,0 C 85 % 87 % 0 % 1020,4 hPa 0,0 l/m 0,0 km/h (0 Bft) W 270 0 min 0,0 UV-I 3,7 C 5,8 C 0,0 km/h (0 Bft)
30.09.2012 02:15 6,0 C 19,4 C 7,3 C 5,9 C 5,6 C 0,0 C 85 % 88 % 0 % 1020,4 hPa 0,0 l/m 0,0 km/h (0 Bft) S-SW 202 0 min 0,0 UV-I 3,7 C 5,6 C 0,0 km/h (0 Bft)
30.09.2012 02:20 5,9 C 19,4 C 7,3 C 5,8 C 5,6 C 0,0 C 85 % 88 % 0 % 1020,4 hPa 0,0 l/m 0,0 km/h (0 Bft) SW 225 0 min 0,0 UV-I 3,6 C 5,6 C 0,0 km/h (0 Bft)
30.09.2012 02:25 5,9 C 19,4 C 7,2 C 5,8 C 5,5 C 0,0 C 85 % 88 % 0 % 1020,6 hPa 0,0 l/m 0,0 km/h (0 Bft) O-SO 112 0 min 0,0 UV-I 3,6 C 5,5 C 0,0 km/h (0 Bft)
30.09.2012 02:30 5,7 C 19,4 C 7,0 C 5,6 C 5,4 C 0,0 C 85 % 88 % 0 % 1020,6 hPa 0,0 l/m 0,0 km/h (0 Bft) O-SO 112 0 min 0,0 UV-I 3,4 C 5,4 C 0,0 km/h (0 Bft)
30.09.2012 02:35 5,6 C 19,4 C 7,1 C 5,5 C 5,4 C 0,0 C 85 % 88 % 0 % 1020,6 hPa 0,0 l/m 0,0 km/h (0 Bft) O-SO 112 0 min 0,0 UV-I 3,3 C 5,4 C 0,0 km/h (0 Bft)
30.09.2012 02:40 5,5 C 19,3 C 7,1 C 5,4 C 5,3 C 0,0 C 85 % 88 % 0 % 1020,6 hPa 0,0 l/m 0,0 km/h (0 Bft) SW 225 0 min 0,0 UV-I 3,2 C 5,3 C 0,0 km/h (0 Bft)
30.09.2012 02:45 5,5 C 19,3 C 7,0 C 5,4 C 5,3 C 0,0 C 85 % 88 % 0 % 1020,8 hPa 0,0 l/m 0,0 km/h (0 Bft) SW 225 0 min 0,0 UV-I 3,2 C 5,3 C 0,0 km/h (0 Bft)
30.09.2012 02:50 5,5 C 19,3 C 6,9 C 5,5 C 5,4 C 0,0 C 86 % 88 % 0 % 1020,8 hPa 0,0 l/m 0,0 km/h (0 Bft) O 90 0 min 0,0 UV-I 3,3 C 5,4 C 0,0 km/h (0 Bft)
30.09.2012 02:55 5,5 C 19,4 C 6,8 C 5,5 C 5,4 C 0,0 C 86 % 88 % 0 % 1020,8 hPa 0,0 l/m 0,0 km/h (0 Bft) O 90 0 min 0,0 UV-I 3,3 C 5,4 C 0,0 km/h (0 Bft)
30.09.2012 03:00 5,4 C 19,4 C 6,8 C 5,4 C 5,4 C 0,0 C 87 % 88 % 0 % 1020,8 hPa 0,0 l/m 0,0 km/h (0 Bft) O 90 0 min 0,0 UV-I 3,4 C 5,4 C 1,8 km/h (1 Bft)
30.09.2012 03:05 5,4 C 19,4 C 6,9 C 5,5 C 5,5 C 0,1 C 87 % 89 % 0 % 1021,1 hPa 0,0 l/m 0,2 km/h (0 Bft) W-SW 247 0 min 0,0 UV-I 3,4 C 5,5 C 0,0 km/h (0 Bft)
30.09.2012 03:10 5,5 C 19,3 C 6,9 C 5,5 C 5,5 C 0,0 C 87 % 89 % 0 % 1021,1 hPa 0,0 l/m 0,2 km/h (0 Bft) W-SW 247 0 min 0,0 UV-I 3,5 C 5,5 C 0,0 km/h (0 Bft)
30.09.2012 03:15 5,5 C 19,3 C 6,8 C 5,5 C 5,4 C 0,0 C 87 % 89 % 0 % 1021,1 hPa 0,0 l/m 0,0 km/h (0 Bft) O-SO 112 0 min 0,0 UV-I 3,5 C 5,4 C 0,0 km/h (0 Bft)
30.09.2012 03:20 5,5 C 19,3 C 6,9 C 5,5 C 5,5 C 0,0 C 87 % 89 % 0 % 1021,1 hPa 0,0 l/m 0,0 km/h (0 Bft) O-NO 67 0 min 0,0 UV-I 3,5 C 5,5 C 0,0 km/h (0 Bft)
30.09.2012 03:25 5,5 C 19,3 C 7,0 C 5,6 C 5,6 C 0,1 C 87 % 89 % 0 % 1021,3 hPa 0,0 l/m 0,0 km/h (0 Bft) O 90 0 min 0,0 UV-I 3,5 C 5,6 C 0,0 km/h (0 Bft)
30.09.2012 03:30 5,5 C 19,3 C 6,9 C 5,6 C 5,6 C 0,1 C 87 % 89 % 0 % 1021,3 hPa 0,0 l/m 0,0 km/h (0 Bft) O 90 0 min 0,0 UV-I 3,5 C 5,6 C 0,0 km/h (0 Bft)
30.09.2012 03:35 5,5 C 19,3 C 6,8 C 5,7 C 5,7 C 0,2 C 87 % 89 % 0 % 1021,3 hPa 0,0 l/m 0,0 km/h (0 Bft) O 90 0 min 0,0 UV-I 3,5 C 5,7 C 0,0 km/h (0 Bft)
30.09.2012 03:40 5,4 C 19,2 C 6,8 C 5,7 C 5,7 C 0,3 C 87 % 89 % 0 % 1021,3 hPa 0,0 l/m 0,0 km/h (0 Bft) O-SO 112 0 min 0,0 UV-I 3,4 C 5,7 C 0,0 km/h (0 Bft)
30.09.2012 03:45 5,4 C 19,2 C 6,8 C 5,5 C 5,5 C 0,1 C 87 % 89 % 0 % 1021,4 hPa 0,0 l/m 0,0 km/h (0 Bft) O 90 0 min 0,0 UV-I 3,4 C 5,5 C 0,0 km/h (0 Bft)
30.09.2012 03:50 5,3 C 19,2 C 6,7 C 5,5 C 5,5 C 0,2 C 87 % 89 % 0 % 1021,4 hPa 0,0 l/m 0,0 km/h (0 Bft) O-SO 112 0 min 0,0 UV-I 3,3 C 5,5 C 0,0 km/h (0 Bft)
30.09.2012 03:55 5,3 C 19,2 C 6,7 C 5,6 C 5,6 C 0,3 C 88 % 89 % 0 % 1021,4 hPa 0,0 l/m 0,5 km/h (0 Bft) O-NO 67 0 min 0,0 UV-I 3,5 C 5,6 C 2,6 km/h (1 Bft)
30.09.2012 04:00 5,5 C 19,2 C 6,8 C 5,8 C 5,8 C 0,3 C 88 % 90 % 0 % 1021,4 hPa 0,0 l/m 1,3 km/h (1 Bft) S-SO 157 0 min 0,0 UV-I 3,7 C 5,8 C 2,9 km/h (1 Bft)
30.09.2012 04:05 5,6 C 19,2 C 6,9 C 5,9 C 5,9 C 0,3 C 88 % 90 % 0 % 1021,5 hPa 0,0 l/m 1,1 km/h (1 Bft) W-SW 247 0 min 0,0 UV-I 3,8 C 5,9 C 1,9 km/h (1 Bft)
30.09.2012 04:10 5,5 C 19,2 C 6,9 C 5,7 C 5,7 C 0,2 C 88 % 90 % 0 % 1021,5 hPa 0,0 l/m 0,3 km/h (0 Bft) SW 225 0 min 0,0 UV-I 3,7 C 5,7 C 0,0 km/h (0 Bft)
30.09.2012 04:15 5,5 C 19,2 C 6,9 C 5,5 C 5,5 C 0,0 C 88 % 89 % 0 % 1021,5 hPa 0,0 l/m 0,3 km/h (0 Bft) O 90 0 min 0,0 UV-I 3,7 C 5,5 C 0,0 km/h (0 Bft)
30.09.2012 04:20 5,2 C 19,1 C 6,5 C 5,2 C 5,1 C 0,0 C 88 % 89 % 0 % 1021,5 hPa 0,0 l/m 0,2 km/h (0 Bft) W-SW 247 0 min 0,0 UV-I 3,4 C 5,1 C 3,1 km/h (1 Bft)
30.09.2012 04:25 5,1 C 19,1 C 6,4 C 5,1 C 5,0 C 0,0 C 87 % 89 % 0 % 1021,6 hPa 0,0 l/m 0,2 km/h (0 Bft) O-NO 67 0 min 0,0 UV-I 3,1 C 5,0 C 0,0 km/h (0 Bft)
30.09.2012 04:30 5,1 C 19,1 C 6,4 C 5,1 C 5,1 C 0,0 C 88 % 89 % 0 % 1021,6 hPa 0,0 l/m 0,0 km/h (0 Bft) O 90 0 min 0,0 UV-I 3,3 C 5,1 C 0,0 km/h (0 Bft)
30.09.2012 04:35 5,1 C 19,2 C 6,5 C 5,3 C 5,3 C 0,2 C 88 % 90 % 0 % 1021,6 hPa 0,0 l/m 0,0 km/h (0 Bft) O-SO 112 0 min 0,0 UV-I 3,3 C 5,3 C 0,0 km/h (0 Bft)
30.09.2012 04:40 5,2 C 19,2 C 6,6 C 5,4 C 5,4 C 0,2 C 88 % 90 % 0 % 1021,6 hPa 0,0 l/m 0,0 km/h (0 Bft) O-NO 67 0 min 0,0 UV-I 3,4 C 5,4 C 0,0 km/h (0 Bft)
30.09.2012 04:45 5,2 C 19,1 C 6,5 C 5,4 C 5,4 C 0,2 C 88 % 90 % 0 % 1021,8 hPa 0,0 l/m 0,0 km/h (0 Bft) O 90 0 min 0,0 UV-I 3,4 C 5,4 C 0,0 km/h (0 Bft)
30.09.2012 04:50 5,2 C 19,1 C 6,5 C 5,4 C 5,4 C 0,2 C 88 % 90 % 0 % 1021,8 hPa 0,0 l/m 0,0 km/h (0 Bft) O-NO 67 0 min 0,0 UV-I 3,4 C 5,4 C 0,0 km/h (0 Bft)
30.09.2012 04:55 5,2 C 19,1 C 6,5 C 5,4 C 5,4 C 0,2 C 88 % 90 % 0 % 1021,8 hPa 0,0 l/m 0,0 km/h (0 Bft) O 90 0 min 0,0 UV-I 3,4 C 5,4 C 0,0 km/h (0 Bft)
30.09.2012 05:00 5,3 C 19,1 C 6,6 C 5,4 C 5,4 C 0,1 C 89 % 90 % 0 % 1021,8 hPa 0,0 l/m 0,0 km/h (0 Bft) O-NO 67 0 min 0,0 UV-I 3,6 C 5,4 C 0,0 km/h (0 Bft)
30.09.2012 05:05 5,3 C 19,1 C 6,7 C 5,4 C 5,4 C 0,1 C 89 % 90 % 0 % 1022,1 hPa 0,0 l/m 0,0 km/h (0 Bft) O-NO 67 0 min 0,0 UV-I 3,6 C 5,4 C 0,0 km/h (0 Bft)
30.09.2012 05:10 5,3 C 19,1 C 6,5 C 5,4 C 5,4 C 0,1 C 89 % 90 % 0 % 1022,1 hPa 0,0 l/m 0,0 km/h (0 Bft) O-SO 112 0 min 0,0 UV-I 3,6 C 5,4 C 0,0 km/h (0 Bft)
30.09.2012 05:15 5,2 C 19,1 C 6,5 C 5,3 C 5,3 C 0,1 C 89 % 90 % 0 % 1022,1 hPa 0,0 l/m 0,0 km/h (0 Bft) O-SO 112 0 min 0,0 UV-I 3,5 C 5,3 C 0,0 km/h (0 Bft)
30.09.2012 05:20 5,1 C 19,0 C 6,4 C 5,1 C 5,1 C 0,0 C 89 % 90 % 0 % 1022,1 hPa 0,0 l/m 0,0 km/h (0 Bft) O 90 0 min 0,0 UV-I 3,4 C 5,1 C 0,0 km/h (0 Bft)
30.09.2012 05:25 5,1 C 19,0 C 6,3 C 5,0 C 4,9 C 0,0 C 88 % 90 % 0 % 1022,1 hPa 0,0 l/m 0,0 km/h (0 Bft) W-SW 247 0 min 0,0 UV-I 3,3 C 4,9 C 0,0 km/h (0 Bft)
30.09.2012 05:30 4,8 C 18,9 C 6,1 C 4,7 C 4,6 C 0,0 C 88 % 90 % 0 % 1022,1 hPa 0,0 l/m 0,0 km/h (0 Bft) W-SW 247 0 min 0,0 UV-I 3,0 C 4,6 C 0,0 km/h (0 Bft)
30.09.2012 05:35 4,7 C 18,9 C 6,0 C 4,6 C 4,4 C 0,0 C 88 % 89 % 0 % 1022,1 hPa 0,0 l/m 0,0 km/h (0 Bft) W-SW 247 0 min 0,0 UV-I 2,9 C 4,4 C 0,0 km/h (0 Bft)
30.09.2012 05:40 4,5 C 18,9 C 6,0 C 4,3 C 4,0 C 0,0 C 88 % 89 % 0 % 1022,1 hPa 0,0 l/m 0,0 km/h (0 Bft) O-SO 112 0 min 0,0 UV-I 2,7 C 4,0 C 0,0 km/h (0 Bft)
30.09.2012 05:45 4,4 C 18,9 C 6,0 C 4,3 C 4,1 C 0,0 C 88 % 89 % 0 % 1022,3 hPa 0,0 l/m 0,0 km/h (0 Bft) O-SO 112 0 min 0,0 UV-I 2,6 C 4,1 C 0,0 km/h (0 Bft)
30.09.2012 05:50 4,4 C 18,9 C 6,0 C 4,4 C 4,3 C 0,0 C 88 % 90 % 0 % 1022,3 hPa 0,0 l/m 0,0 km/h (0 Bft) O 90 0 min 0,0 UV-I 2,6 C 4,3 C 0,0 km/h (0 Bft)
30.09.2012 05:55 4,5 C 18,9 C 6,1 C 4,5 C 4,4 C 0,0 C 88 % 90 % 0 % 1022,3 hPa 0,0 l/m 0,0 km/h (0 Bft) O 90 0 min 0,0 UV-I 2,7 C 4,4 C 0,0 km/h (0 Bft)
30.09.2012 06:00 4,7 C 18,9 C 6,0 C 4,7 C 4,6 C 0,0 C 88 % 90 % 0 % 1022,3 hPa 0,0 l/m 0,0 km/h (0 Bft) O 90 0 min 0,0 UV-I 2,9 C 4,6 C 0,0 km/h (0 Bft)
30.09.2012 06:05 4,7 C 18,9 C 6,0 C 4,7 C 4,7 C 0,0 C 88 % 90 % 0 % 1022,3 hPa 0,0 l/m 0,0 km/h (0 Bft) O 90 0 min 0,0 UV-I 2,9 C 4,7 C 0,0 km/h (0 Bft)
30.09.2012 06:10 4,5 C 18,9 C 5,9 C 4,6 C 4,6 C 0,1 C 88 % 90 % 0 % 1022,3 hPa 0,0 l/m 0,0 km/h (0 Bft) O 90 0 min 0,0 UV-I 2,7 C 4,6 C 0,0 km/h (0 Bft)
30.09.2012 06:15 4,4 C 18,9 C 5,9 C 4,5 C 4,5 C 0,1 C 88 % 90 % 0 % 1022,3 hPa 0,0 l/m 0,0 km/h (0 Bft) O-SO 112 0 min 0,0 UV-I 2,6 C 4,5 C 0,0 km/h (0 Bft)
30.09.2012 06:20 4,4 C 18,9 C 6,0 C 4,6 C 4,6 C 0,2 C 89 % 90 % 0 % 1022,3 hPa 0,0 l/m 0,0 km/h (0 Bft) O 90 0 min 0,0 UV-I 2,7 C 4,6 C 0,0 km/h (0 Bft)
30.09.2012 06:25 4,7 C 18,9 C 6,0 C 4,8 C 4,8 C 0,1 C 89 % 91 % 0 % 1022,7 hPa 0,0 l/m 0,0 km/h (0 Bft) O 90 0 min 0,0 UV-I 3,0 C 4,8 C 0,0 km/h (0 Bft)
30.09.2012 06:30 4,8 C 18,9 C 6,1 C 4,9 C 4,9 C 0,1 C 89 % 91 % 0 % 1022,7 hPa 0,0 l/m 0,0 km/h (0 Bft) O-NO 67 0 min 0,0 UV-I 3,1 C 4,9 C 0,0 km/h (0 Bft)
30.09.2012 06:35 4,8 C 18,9 C 6,1 C 5,0 C 5,0 C 0,2 C 89 % 91 % 0 % 1022,7 hPa 0,0 l/m 0,0 km/h (0 Bft) O-SO 112 0 min 0,0 UV-I 3,1 C 5,0 C 0,0 km/h (0 Bft)
30.09.2012 06:46 4,5 C 18,8 C 5,7 C 4,5 C 4,5 C 0,0 C 89 % 90 % 0 % 1022,6 hPa 0,0 l/m 0,0 km/h (0 Bft) N 0 0 min 0,0 UV-I 2,8 C 4,5 C 0,0 km/h (0 Bft)
30.09.2012 06:55 4,5 C 18,8 C 5,9 C 4,6 C 4,6 C 0,1 C 89 % 90 % 0 % 1022,6 hPa 0,0 l/m 0,0 km/h (0 Bft) O-NO 67 0 min 0,0 UV-I 2,8 C 4,6 C 0,0 km/h (0 Bft)
30.09.2012 07:00 4,7 C 18,8 C 6,0 C 4,7 C 4,7 C 0,0 C 89 % 91 % 0 % 1022,6 hPa 0,0 l/m 0,0 km/h (0 Bft) O-SO 112 0 min 0,0 UV-I 3,0 C 4,7 C 0,0 km/h (0 Bft)
30.09.2012 07:05 4,6 C 18,8 C 6,0 C 4,8 C 4,8 C 0,2 C 89 % 91 % 0 % 1023,0 hPa 0,0 l/m 0,0 km/h (0 Bft) O-SO 112 0 min 0,0 UV-I 2,9 C 4,8 C 0,0 km/h (0 Bft)
30.09.2012 07:10 4,7 C 18,8 C 6,0 C 4,7 C 4,7 C 0,0 C 89 % 91 % 0 % 1023,0 hPa 0,0 l/m 0,0 km/h (0 Bft) O 90 0 min 0,0 UV-I 3,0 C 4,7 C 0,0 km/h (0 Bft)
30.09.2012 07:15 4,7 C 18,8 C 6,0 C 4,7 C 4,7 C 0,0 C 89 % 91 % 0 % 1023,0 hPa 0,0 l/m 0,0 km/h (0 Bft) SW 225 0 min 0,0 UV-I 3,0 C 4,7 C 0,0 km/h (0 Bft)
30.09.2012 07:20 4,5 C 18,7 C 5,6 C 4,5 C 4,4 C 0,0 C 89 % 90 % 0 % 1023,0 hPa 0,0 l/m 0,0 km/h (0 Bft) SW 225 0 min 0,0 UV-I 2,8 C 4,4 C 0,0 km/h (0 Bft)
30.09.2012 07:25 4,3 C 18,7 C 5,7 C 4,3 C 4,2 C 0,0 C 89 % 90 % 0 % 1023,0 hPa 0,0 l/m 0,0 km/h (0 Bft) W-SW 247 0 min 0,0 UV-I 2,7 C 4,2 C 0,0 km/h (0 Bft)
30.09.2012 07:30 4,1 C 18,7 C 5,5 C 4,0 C 3,8 C 0,0 C 89 % 90 % 0 % 1023,0 hPa 0,0 l/m 0,0 km/h (0 Bft) W-SW 247 0 min 0,0 UV-I 2,5 C 3,8 C 0,0 km/h (0 Bft)
30.09.2012 07:35 4,0 C 18,7 C 5,5 C 3,9 C 3,8 C 0,0 C 89 % 90 % 0 % 1023,0 hPa 0,0 l/m 0,0 km/h (0 Bft) S-SW 202 0 min 0,0 UV-I 2,4 C 3,8 C 0,0 km/h (0 Bft)
30.09.2012 07:40 3,9 C 18,7 C 5,5 C 4,9 C 4,9 C 1,0 C 89 % 90 % 26 % 1023,0 hPa 0,0 l/m 0,0 km/h (0 Bft) O-SO 112 5 min 0,0 UV-I 2,3 C 4,9 C 0,0 km/h (0 Bft)
30.09.2012 07:45 4,0 C 18,7 C 5,5 C 5,5 C 5,5 C 1,5 C 89 % 90 % 39 % 1023,3 hPa 0,0 l/m 0,0 km/h (0 Bft) O-SO 112 5 min 0,0 UV-I 2,4 C 5,5 C 0,0 km/h (0 Bft)
30.09.2012 07:50 4,4 C 18,7 C 5,6 C 6,4 C 6,4 C 2,0 C 90 % 91 % 53 % 1023,3 hPa 0,0 l/m 0,0 km/h (0 Bft) SO 135 5 min 0,0 UV-I 2,9 C 6,4 C 0,0 km/h (0 Bft)
30.09.2012 07:55 4,8 C 18,7 C 5,6 C 7,1 C 7,1 C 2,3 C 91 % 91 % 61 % 1023,3 hPa 0,0 l/m 0,0 km/h (0 Bft) O-NO 67 5 min 0,0 UV-I 3,5 C 7,1 C 0,0 km/h (0 Bft)
30.09.2012 08:00 4,9 C 18,6 C 5,7 C 7,8 C 7,8 C 2,9 C 91 % 91 % 76 % 1023,3 hPa 0,0 l/m 0,0 km/h (0 Bft) SW 225 5 min 0,0 UV-I 3,6 C 7,8 C 0,0 km/h (0 Bft)
30.09.2012 08:05 4,8 C 18,6 C 5,7 C 8,5 C 8,5 C 3,7 C 90 % 90 % 97 % 1023,3 hPa 0,0 l/m 0,0 km/h (0 Bft) W-NW 292 5 min 0,0 UV-I 3,3 C 8,5 C 0,0 km/h (0 Bft)
30.09.2012 08:10 5,2 C 18,6 C 5,9 C 9,6 C 9,6 C 4,4 C 91 % 91 % 100 % 1023,3 hPa 0,0 l/m 0,0 km/h (0 Bft) W 270 5 min 0,0 UV-I 3,9 C 9,6 C 0,0 km/h (0 Bft)
30.09.2012 08:15 5,6 C 18,6 C 5,8 C 8,9 C 8,9 C 3,3 C 91 % 91 % 87 % 1023,3 hPa 0,0 l/m 0,0 km/h (0 Bft) W-NW 292 5 min 0,0 UV-I 4,2 C 8,9 C 0,0 km/h (0 Bft)
30.09.2012 08:20 5,5 C 18,6 C 6,0 C 7,6 C 7,6 C 2,1 C 91 % 91 % 55 % 1023,3 hPa 0,0 l/m 0,0 km/h (0 Bft) SW 225 5 min 0,0 UV-I 4,2 C 7,6 C 0,0 km/h (0 Bft)
30.09.2012 08:25 5,3 C 18,6 C 6,1 C 7,0 C 7,0 C 1,7 C 90 % 91 % 45 % 1023,4 hPa 0,0 l/m 0,0 km/h (0 Bft) SW 225 0 min 0,0 UV-I 3,8 C 7,0 C 0,0 km/h (0 Bft)
30.09.2012 08:30 5,1 C 18,6 C 6,0 C 6,6 C 6,6 C 1,5 C 90 % 91 % 39 % 1023,4 hPa 0,0 l/m 0,0 km/h (0 Bft) SW 225 0 min 0,0 UV-I 3,6 C 6,6 C 0,0 km/h (0 Bft)
30.09.2012 08:35 5,1 C 18,6 C 6,1 C 6,4 C 6,4 C 1,3 C 90 % 91 % 34 % 1023,4 hPa 0,0 l/m 0,0 km/h (0 Bft) W-SW 247 0 min 0,0 UV-I 3,6 C 6,4 C 0,0 km/h (0 Bft)
30.09.2012 08:40 5,1 C 18,6 C 6,5 C 6,6 C 6,6 C 1,5 C 90 % 91 % 39 % 1023,4 hPa 0,0 l/m 0,0 km/h (0 Bft) W-SW 247 0 min 0,0 UV-I 3,6 C 6,6 C 0,0 km/h (0 Bft)
30.09.2012 08:45 5,2 C 18,6 C 6,5 C 6,6 C 6,6 C 1,4 C 90 % 91 % 37 % 1024,0 hPa 0,0 l/m 0,0 km/h (0 Bft) NO 45 0 min 0,0 UV-I 3,7 C 6,6 C 0,0 km/h (0 Bft)
30.09.2012 08:50 5,3 C 18,6 C 6,8 C 6,6 C 6,6 C 1,3 C 90 % 92 % 34 % 1024,0 hPa 0,0 l/m 0,0 km/h (0 Bft) S 180 0 min 0,0 UV-I 3,8 C 6,6 C 0,0 km/h (0 Bft)
30.09.2012 08:55 5,5 C 18,5 C 6,9 C 6,7 C 6,7 C 1,2 C 90 % 91 % 32 % 1024,0 hPa 0,0 l/m 0,0 km/h (0 Bft) W 270 0 min 0,0 UV-I 4,0 C 6,7 C 0,0 km/h (0 Bft)
30.09.2012 09:00 5,5 C 18,5 C 7,1 C 6,7 C 6,7 C 1,2 C 90 % 91 % 32 % 1024,0 hPa 0,0 l/m 0,0 km/h (0 Bft) W 270 0 min 0,0 UV-I 4,0 C 6,7 C 0,0 km/h (0 Bft)
30.09.2012 09:05 5,6 C 18,5 C 7,3 C 6,8 C 6,8 C 1,2 C 90 % 92 % 32 % 1023,7 hPa 0,0 l/m 0,2 km/h (0 Bft) S 180 0 min 0,0 UV-I 4,1 C 6,8 C 1,9 km/h (1 Bft)
30.09.2012 09:10 5,9 C 18,5 C 7,5 C 7,2 C 7,2 C 1,3 C 91 % 92 % 34 % 1023,7 hPa 0,0 l/m 0,3 km/h (0 Bft) W-SW 247 0 min 0,0 UV-I 4,5 C 7,2 C 1,6 km/h (1 Bft)
30.09.2012 09:15 5,9 C 18,4 C 7,5 C 7,3 C 7,3 C 1,4 C 91 % 92 % 37 % 1023,7 hPa 0,0 l/m 0,3 km/h (0 Bft) W-SW 247 0 min 0,0 UV-I 4,5 C 7,3 C 0,0 km/h (0 Bft)
30.09.2012 09:20 6,1 C 18,4 C 7,6 C 7,5 C 7,5 C 1,4 C 91 % 92 % 37 % 1023,7 hPa 0,0 l/m 0,3 km/h (0 Bft) SW 225 0 min 0,0 UV-I 4,7 C 7,5 C 0,0 km/h (0 Bft)
30.09.2012 09:25 6,3 C 18,4 C 7,9 C 7,7 C 7,7 C 1,4 C 91 % 92 % 37 % 1024,2 hPa 0,0 l/m 0,5 km/h (0 Bft) SW 225 0 min 0,0 UV-I 4,9 C 7,7 C 0,0 km/h (0 Bft)
30.09.2012 09:30 6,5 C 18,4 C 8,0 C 7,9 C 7,9 C 1,4 C 91 % 91 % 37 % 1024,2 hPa 0,0 l/m 0,3 km/h (0 Bft) SW 225 0 min 0,0 UV-I 5,1 C 7,9 C 0,0 km/h (0 Bft)
30.09.2012 09:35 6,7 C 18,3 C 8,3 C 8,0 C 8,0 C 1,3 C 91 % 91 % 34 % 1024,2 hPa 0,0 l/m 0,2 km/h (0 Bft) W-SW 247 0 min 0,1 UV-I 5,3 C 8,0 C 0,0 km/h (0 Bft)
30.09.2012 09:40 6,8 C 18,3 C 8,5 C 8,3 C 8,3 C 1,5 C 91 % 92 % 39 % 1024,2 hPa 0,0 l/m 0,2 km/h (0 Bft) S-SO 157 0 min 0,1 UV-I 5,4 C 8,3 C 0,0 km/h (0 Bft)
30.09.2012 09:45 6,9 C 18,3 C 8,6 C 8,5 C 8,5 C 1,6 C 91 % 92 % 42 % 1024,1 hPa 0,0 l/m 0,3 km/h (0 Bft) S-SW 202 0 min 0,1 UV-I 5,5 C 8,5 C 0,0 km/h (0 Bft)
30.09.2012 09:50 7,1 C 18,2 C 8,8 C 8,7 C 8,7 C 1,6 C 91 % 92 % 42 % 1024,1 hPa 0,0 l/m 0,5 km/h (0 Bft) SW 225 0 min 0,1 UV-I 5,7 C 8,7 C 2,1 km/h (1 Bft)
30.09.2012 09:55 7,2 C 18,2 C 8,8 C 8,8 C 8,8 C 1,6 C 92 % 91 % 42 % 1024,1 hPa 0,0 l/m 0,6 km/h (0 Bft) W-SW 247 0 min 0,1 UV-I 6,0 C 8,8 C 0,0 km/h (0 Bft)
30.09.2012 10:00 7,3 C 18,1 C 9,1 C 9,1 C 9,1 C 1,8 C 91 % 91 % 47 % 1024,1 hPa 0,0 l/m 1,1 km/h (1 Bft) S 180 0 min 0,2 UV-I 5,9 C 9,1 C 4,3 km/h (1 Bft)
30.09.2012 10:05 7,4 C 18,1 C 9,1 C 9,8 C 9,8 C 2,4 C 92 % 91 % 63 % 1024,5 hPa 0,0 l/m 1,8 km/h (1 Bft) SW 225 0 min 0,2 UV-I 6,2 C 9,8 C 2,3 km/h (1 Bft)
30.09.2012 10:10 7,7 C 18,1 C 9,3 C 10,0 C 10,0 C 2,3 C 91 % 91 % 61 % 1024,5 hPa 0,0 l/m 1,8 km/h (1 Bft) W-SW 247 0 min 0,2 UV-I 6,3 C 10,0 C 5,3 km/h (1 Bft)
30.09.2012 10:15 7,8 C 18,0 C 9,5 C 10,0 C 10,0 C 2,2 C 91 % 90 % 58 % 1024,5 hPa 0,0 l/m 2,3 km/h (1 Bft) SW 225 0 min 0,3 UV-I 6,4 C 10,0 C 4,0 km/h (1 Bft)
30.09.2012 10:20 8,3 C 18,0 C 9,6 C 10,1 C 10,1 C 1,8 C 91 % 90 % 47 % 1024,5 hPa 0,0 l/m 3,9 km/h (1 Bft) W 270 0 min 0,3 UV-I 6,9 C 10,1 C 6,4 km/h (2 Bft)
30.09.2012 10:25 8,5 C 18,0 C 9,8 C 10,2 C 10,2 C 1,7 C 90 % 90 % 45 % 1024,4 hPa 0,0 l/m 3,7 km/h (1 Bft) S-SW 202 0 min 0,3 UV-I 7,0 C 10,2 C 4,5 km/h (1 Bft)
30.09.2012 10:30 8,8 C 18,0 C 9,9 C 10,5 C 10,5 C 1,7 C 88 % 89 % 45 % 1024,4 hPa 0,0 l/m 4,2 km/h (1 Bft) SW 225 0 min 0,3 UV-I 6,9 C 10,5 C 8,7 km/h (2 Bft)
30.09.2012 10:35 9,1 C 18,0 C 9,9 C 10,7 C 10,7 C 1,6 C 86 % 88 % 42 % 1024,4 hPa 0,0 l/m 4,5 km/h (1 Bft) SW 225 0 min 0,4 UV-I 6,9 C 10,7 C 5,5 km/h (1 Bft)
30.09.2012 10:40 9,5 C 17,9 C 9,9 C 10,8 C 10,8 C 1,3 C 83 % 88 % 34 % 1024,4 hPa 0,0 l/m 5,0 km/h (1 Bft) SW 225 0 min 0,4 UV-I 6,8 C 10,8 C 10,3 km/h (2 Bft)
30.09.2012 10:45 9,6 C 17,9 C 10,0 C 11,1 C 11,1 C 1,5 C 82 % 87 % 39 % 1024,4 hPa 0,0 l/m 4,7 km/h (1 Bft) SW 225 0 min 0,4 UV-I 6,7 C 11,1 C 6,1 km/h (2 Bft)
30.09.2012 10:50 10,0 C 17,9 C 10,1 C 11,2 C 11,2 C 1,2 C 80 % 86 % 32 % 1024,4 hPa 0,0 l/m 5,0 km/h (1 Bft) W-SW 247 0 min 0,5 UV-I 6,7 C 11,2 C 10,5 km/h (2 Bft)
30.09.2012 10:55 10,3 C 17,9 C 10,2 C 11,4 C 11,4 C 1,1 C 79 % 86 % 29 % 1024,4 hPa 0,0 l/m 4,8 km/h (1 Bft) W-SW 247 0 min 0,5 UV-I 6,8 C 11,4 C 1,9 km/h (1 Bft)
30.09.2012 11:00 10,5 C 17,9 C 10,3 C 11,5 C 11,5 C 1,0 C 78 % 86 % 26 % 1024,4 hPa 0,0 l/m 4,2 km/h (1 Bft) SW 225 0 min 0,5 UV-I 6,8 C 11,5 C 4,8 km/h (1 Bft)
30.09.2012 11:05 10,8 C 17,9 C 10,5 C 11,6 C 11,6 C 0,8 C 77 % 85 % 21 % 1023,8 hPa 0,0 l/m 4,3 km/h (1 Bft) W 270 0 min 0,5 UV-I 6,9 C 11,6 C 2,3 km/h (1 Bft)
30.09.2012 11:10 11,0 C 17,9 C 10,5 C 11,8 C 11,8 C 0,8 C 76 % 85 % 21 % 1023,8 hPa 0,0 l/m 3,7 km/h (1 Bft) SW 225 0 min 0,6 UV-I 6,9 C 11,8 C 4,5 km/h (1 Bft)
30.09.2012 11:15 11,2 C 17,9 C 10,7 C 12,0 C 12,0 C 0,8 C 76 % 85 % 21 % 1023,8 hPa 0,0 l/m 3,2 km/h (1 Bft) W 270 0 min 0,6 UV-I 7,1 C 12,0 C 4,3 km/h (1 Bft)
30.09.2012 11:20 11,6 C 17,9 C 10,8 C 12,3 C 12,3 C 0,7 C 74 % 84 % 18 % 1023,8 hPa 0,0 l/m 4,0 km/h (1 Bft) S-SW 202 0 min 0,7 UV-I 7,1 C 12,3 C 6,8 km/h (2 Bft)
30.09.2012 11:25 11,6 C 17,9 C 11,0 C 12,3 C 12,3 C 0,7 C 74 % 84 % 18 % 1024,6 hPa 0,0 l/m 4,5 km/h (1 Bft) W-SW 247 0 min 0,7 UV-I 7,1 C 12,3 C 6,0 km/h (2 Bft)
30.09.2012 11:30 11,9 C 17,9 C 11,1 C 12,3 C 12,3 C 0,4 C 72 % 83 % 11 % 1024,6 hPa 0,0 l/m 4,8 km/h (1 Bft) S 180 0 min 0,7 UV-I 7,0 C 12,3 C 6,6 km/h (2 Bft)
30.09.2012 11:35 11,9 C 17,8 C 11,2 C 12,4 C 12,4 C 0,5 C 72 % 83 % 13 % 1024,6 hPa 0,0 l/m 5,0 km/h (1 Bft) SW 225 0 min 0,7 UV-I 7,0 C 12,4 C 5,6 km/h (1 Bft)
30.09.2012 11:40 11,9 C 17,8 C 11,2 C 12,6 C 12,6 C 0,7 C 72 % 82 % 18 % 1024,6 hPa 0,0 l/m 4,7 km/h (1 Bft) NO 45 0 min 0,8 UV-I 7,0 C 12,6 C 6,3 km/h (2 Bft)
30.09.2012 11:45 12,0 C 17,8 C 11,5 C 12,7 C 12,7 C 0,7 C 72 % 82 % 18 % 1023,9 hPa 0,0 l/m 5,0 km/h (1 Bft) W-NW 292 0 min 0,9 UV-I 7,1 C 12,7 C 10,1 km/h (2 Bft)
30.09.2012 11:50 12,1 C 17,8 C 11,5 C 12,8 C 12,8 C 0,7 C 72 % 82 % 18 % 1023,9 hPa 0,0 l/m 4,8 km/h (1 Bft) SW 225 0 min 0,8 UV-I 7,2 C 12,8 C 11,3 km/h (2 Bft)
30.09.2012 11:55 12,3 C 17,8 C 11,7 C 12,9 C 12,9 C 0,6 C 72 % 82 % 16 % 1023,9 hPa 0,0 l/m 3,4 km/h (1 Bft) O 90 0 min 0,9 UV-I 7,4 C 12,9 C 1,9 km/h (1 Bft)
30.09.2012 12:00 12,4 C 17,8 C 11,7 C 13,0 C 13,0 C 0,6 C 71 % 81 % 16 % 1023,9 hPa 0,0 l/m 2,7 km/h (1 Bft) S 180 0 min 0,9 UV-I 7,3 C 13,0 C 4,0 km/h (1 Bft)
30.09.2012 12:05 12,4 C 17,8 C 11,9 C 13,2 C 13,2 C 0,8 C 72 % 81 % 21 % 1022,9 hPa 0,0 l/m 2,3 km/h (1 Bft) W-SW 247 0 min 0,9 UV-I 7,5 C 13,2 C 3,5 km/h (1 Bft)
30.09.2012 12:10 12,5 C 17,9 C 11,9 C 13,3 C 13,3 C 0,8 C 71 % 81 % 21 % 1022,9 hPa 0,0 l/m 1,4 km/h (1 Bft) SW 225 0 min 1,0 UV-I 7,4 C 13,3 C 4,7 km/h (1 Bft)
30.09.2012 12:15 12,7 C 17,8 C 12,0 C 13,4 C 13,4 C 0,7 C 70 % 80 % 18 % 1022,9 hPa 0,0 l/m 2,4 km/h (1 Bft) W-SW 247 0 min 1,0 UV-I 7,4 C 13,4 C 9,3 km/h (2 Bft)
30.09.2012 12:20 12,7 C 17,9 C 12,0 C 13,7 C 13,7 C 1,0 C 70 % 79 % 26 % 1022,9 hPa 0,0 l/m 3,4 km/h (1 Bft) NW 315 0 min 1,0 UV-I 7,4 C 13,7 C 2,9 km/h (1 Bft)
30.09.2012 12:25 12,7 C 17,9 C 12,1 C 13,8 C 13,8 C 1,1 C 69 % 79 % 29 % 1022,7 hPa 0,0 l/m 3,2 km/h (1 Bft) SW 225 0 min 1,0 UV-I 7,2 C 13,8 C 7,6 km/h (2 Bft)
30.09.2012 12:30 13,1 C 17,9 C 12,3 C 14,3 C 14,3 C 1,2 C 69 % 79 % 32 % 1022,7 hPa 0,0 l/m 3,4 km/h (1 Bft) SO 135 0 min 1,5 UV-I 7,5 C 14,3 C 2,4 km/h (1 Bft)
30.09.2012 12:35 13,5 C 17,9 C 12,4 C 15,9 C 15,9 C 2,4 C 67 % 78 % 63 % 1022,7 hPa 0,0 l/m 3,9 km/h (1 Bft) S 180 0 min 2,1 UV-I 7,5 C 15,9 C 7,6 km/h (2 Bft)
30.09.2012 12:41 13,8 C 17,9 C 12,7 C 18,4 C 18,4 C 4,6 C 64 % 77 % 100 % 1021,9 hPa 0,0 l/m 3,7 km/h (1 Bft) N 0 6 min 2,3 UV-I 7,1 C 18,4 C 2,6 km/h (1 Bft)
30.09.2012 12:55 13,9 C 17,9 C 12,7 C 20,2 C 20,2 C 6,3 C 64 % 75 % 100 % 1021,9 hPa 0,0 l/m 0,6 km/h (0 Bft) S-SO 157 14 min 2,5 UV-I 7,2 C 20,2 C 0,0 km/h (0 Bft)
30.09.2012 13:00 13,9 C 17,9 C 12,9 C 20,6 C 20,6 C 6,7 C 63 % 75 % 100 % 1021,9 hPa 0,0 l/m 2,4 km/h (1 Bft) W 270 5 min 2,4 UV-I 7,0 C 20,6 C 5,5 km/h (1 Bft)
30.09.2012 13:05 13,9 C 17,9 C 12,9 C 20,2 C 20,2 C 6,3 C 63 % 74 % 100 % 1022,4 hPa 0,0 l/m 4,2 km/h (1 Bft) SW 225 5 min 2,3 UV-I 7,0 C 20,2 C 7,7 km/h (2 Bft)
30.09.2012 13:10 14,0 C 17,9 C 12,8 C 19,8 C 19,8 C 5,8 C 62 % 74 % 100 % 1022,4 hPa 0,0 l/m 4,7 km/h (1 Bft) W-SW 247 5 min 2,5 UV-I 6,8 C 19,8 C 12,1 km/h (2 Bft)
30.09.2012 13:15 13,9 C 17,9 C 12,9 C 19,9 C 19,9 C 6,0 C 63 % 74 % 100 % 1022,4 hPa 0,0 l/m 3,4 km/h (1 Bft) W-SW 247 5 min 2,3 UV-I 7,0 C 19,9 C 1,8 km/h (1 Bft)
30.09.2012 13:20 14,3 C 17,9 C 13,0 C 20,2 C 20,2 C 5,9 C 61 % 73 % 100 % 1022,4 hPa 0,0 l/m 2,9 km/h (1 Bft) SW 225 5 min 2,0 UV-I 6,9 C 20,2 C 3,7 km/h (1 Bft)
30.09.2012 13:25 14,3 C 17,9 C 13,1 C 20,1 C 20,1 C 5,8 C 59 % 72 % 100 % 1022,2 hPa 0,0 l/m 4,0 km/h (1 Bft) W-SW 247 5 min 1,5 UV-I 6,4 C 20,1 C 9,0 km/h (2 Bft)
30.09.2012 13:30 14,2 C 17,9 C 13,1 C 19,9 C 19,9 C 5,7 C 59 % 72 % 100 % 1022,2 hPa 0,0 l/m 4,7 km/h (1 Bft) W-SW 247 5 min 1,2 UV-I 6,3 C 19,9 C 6,1 km/h (2 Bft)
30.09.2012 13:35 14,2 C 17,9 C 13,0 C 20,2 C 20,2 C 6,0 C 59 % 71 % 100 % 1022,2 hPa 0,0 l/m 4,0 km/h (1 Bft) N 360 5 min 1,5 UV-I 6,3 C 20,2 C 2,9 km/h (1 Bft)
30.09.2012 13:40 14,2 C 17,9 C 13,2 C 20,7 C 20,7 C 6,5 C 60 % 71 % 100 % 1022,2 hPa 0,0 l/m 2,4 km/h (1 Bft) S 180 5 min 1,9 UV-I 6,5 C 20,7 C 0,0 km/h (0 Bft)
30.09.2012 13:45 14,2 C 17,9 C 13,5 C 21,1 C 21,1 C 6,9 C 61 % 71 % 100 % 1022,6 hPa 0,0 l/m 1,4 km/h (1 Bft) SO 135 5 min 1,5 UV-I 6,8 C 21,1 C 2,6 km/h (1 Bft)
30.09.2012 13:50 14,3 C 17,9 C 13,5 C 20,6 C 20,6 C 6,3 C 61 % 71 % 100 % 1022,6 hPa 0,0 l/m 1,6 km/h (1 Bft) S-SO 157 5 min 1,2 UV-I 6,9 C 20,6 C 2,9 km/h (1 Bft)
30.09.2012 13:55 14,4 C 18,0 C 13,6 C 20,8 C 20,8 C 6,4 C 60 % 70 % 100 % 1022,6 hPa 0,0 l/m 1,9 km/h (1 Bft) SO 135 5 min 1,2 UV-I 6,7 C 20,8 C 2,4 km/h (1 Bft)
30.09.2012 14:00 14,5 C 18,0 C 13,7 C 21,5 C 21,5 C 7,0 C 60 % 70 % 100 % 1022,6 hPa 0,0 l/m 1,4 km/h (1 Bft) S-SW 202 5 min 1,2 UV-I 6,8 C 21,5 C 4,7 km/h (1 Bft)
30.09.2012 14:05 14,5 C 18,0 C 13,7 C 21,7 C 21,7 C 7,2 C 58 % 68 % 100 % 1022,4 hPa 0,0 l/m 1,8 km/h (1 Bft) O-NO 67 5 min 1,1 UV-I 6,3 C 21,7 C 1,6 km/h (1 Bft)
30.09.2012 14:10 14,4 C 18,0 C 13,6 C 21,8 C 21,8 C 7,4 C 59 % 69 % 100 % 1022,4 hPa 0,0 l/m 1,6 km/h (1 Bft) S-SO 157 5 min 1,1 UV-I 6,5 C 21,8 C 2,9 km/h (1 Bft)
30.09.2012 14:15 14,5 C 18,0 C 13,7 C 21,9 C 21,9 C 7,4 C 59 % 68 % 100 % 1022,4 hPa 0,0 l/m 1,6 km/h (1 Bft) SO 135 5 min 1,2 UV-I 6,6 C 21,9 C 1,6 km/h (1 Bft)
30.09.2012 14:20 14,7 C 18,0 C 14,0 C 22,1 C 22,1 C 7,4 C 58 % 69 % 100 % 1022,4 hPa 0,0 l/m 2,6 km/h (1 Bft) W-SW 247 5 min 1,1 UV-I 6,5 C 22,1 C 12,7 km/h (3 Bft)
30.09.2012 14:25 14,8 C 18,0 C 14,3 C 21,9 C 21,9 C 7,1 C 59 % 69 % 100 % 1022,4 hPa 0,0 l/m 2,7 km/h (1 Bft) W 270 5 min 1,0 UV-I 6,9 C 21,9 C 4,2 km/h (1 Bft)
30.09.2012 14:30 14,8 C 18,0 C 14,2 C 21,2 C 21,2 C 6,4 C 58 % 68 % 100 % 1022,4 hPa 0,0 l/m 4,5 km/h (1 Bft) W-SW 247 5 min 1,1 UV-I 6,6 C 21,2 C 6,8 km/h (2 Bft)
30.09.2012 14:35 14,8 C 18,0 C 14,3 C 21,3 C 21,3 C 6,5 C 58 % 68 % 100 % 1022,4 hPa 0,0 l/m 3,5 km/h (1 Bft) S 180 5 min 1,0 UV-I 6,6 C 21,3 C 2,6 km/h (1 Bft)
30.09.2012 14:40 14,8 C 18,0 C 14,3 C 21,7 C 21,7 C 6,9 C 57 % 67 % 100 % 1022,4 hPa 0,0 l/m 1,8 km/h (1 Bft) N-NO 22 5 min 1,0 UV-I 6,4 C 21,7 C 0,0 km/h (0 Bft)
30.09.2012 14:45 14,9 C 18,1 C 14,3 C 21,9 C 21,9 C 7,0 C 58 % 68 % 100 % 1022,6 hPa 0,0 l/m 2,3 km/h (1 Bft) W-SW 247 5 min 1,0 UV-I 6,7 C 21,9 C 5,1 km/h (1 Bft)
30.09.2012 14:50 15,1 C 18,0 C 14,6 C 22,1 C 22,1 C 7,0 C 58 % 67 % 100 % 1022,6 hPa 0,0 l/m 1,6 km/h (1 Bft) SW 225 5 min 1,0 UV-I 6,9 C 22,1 C 2,1 km/h (1 Bft)
30.09.2012 14:55 15,1 C 18,0 C 14,6 C 22,3 C 22,3 C 7,2 C 57 % 66 % 100 % 1022,6 hPa 0,0 l/m 1,1 km/h (1 Bft) W 270 5 min 0,9 UV-I 6,6 C 22,3 C 0,0 km/h (0 Bft)
30.09.2012 15:00 15,1 C 18,0 C 14,7 C 22,5 C 22,5 C 7,4 C 56 % 67 % 100 % 1022,6 hPa 0,0 l/m 1,4 km/h (1 Bft) S 180 5 min 0,9 UV-I 6,4 C 22,5 C 4,2 km/h (1 Bft)
30.09.2012 15:05 15,2 C 18,0 C 14,8 C 21,9 C 21,9 C 6,7 C 56 % 66 % 100 % 1022,6 hPa 0,0 l/m 2,3 km/h (1 Bft) NW 315 5 min 0,9 UV-I 6,5 C 21,9 C 0,0 km/h (0 Bft)
30.09.2012 15:10 15,5 C 18,0 C 14,9 C 21,3 C 21,3 C 5,8 C 55 % 65 % 100 % 1022,6 hPa 0,0 l/m 4,3 km/h (1 Bft) W-SW 247 5 min 0,8 UV-I 6,5 C 21,3 C 8,9 km/h (2 Bft)
30.09.2012 15:15 15,7 C 18,0 C 14,9 C 20,9 C 20,9 C 5,2 C 55 % 65 % 100 % 1022,6 hPa 0,0 l/m 4,2 km/h (1 Bft) W 270 5 min 0,8 UV-I 6,7 C 20,9 C 5,6 km/h (1 Bft)
30.09.2012 15:20 15,9 C 18,0 C 15,1 C 20,6 C 20,6 C 4,7 C 53 % 64 % 100 % 1022,6 hPa 0,0 l/m 4,8 km/h (1 Bft) SW 225 5 min 0,8 UV-I 6,3 C 20,6 C 10,6 km/h (2 Bft)
30.09.2012 15:25 15,9 C 18,0 C 15,1 C 20,5 C 20,5 C 4,6 C 54 % 65 % 100 % 1022,9 hPa 0,0 l/m 5,0 km/h (1 Bft) S-SW 202 5 min 0,7 UV-I 6,6 C 20,5 C 7,7 km/h (2 Bft)
30.09.2012 15:30 16,1 C 18,0 C 15,3 C 20,7 C 20,7 C 4,6 C 54 % 65 % 100 % 1022,9 hPa 0,0 l/m 3,5 km/h (1 Bft) W-SW 247 5 min 0,7 UV-I 6,8 C 20,7 C 5,3 km/h (1 Bft)
30.09.2012 15:35 16,5 C 18,1 C 15,2 C 21,0 C 21,0 C 4,5 C 53 % 65 % 100 % 1022,9 hPa 0,0 l/m 3,4 km/h (1 Bft) SW 225 5 min 0,8 UV-I 6,9 C 21,0 C 3,7 km/h (1 Bft)
30.09.2012 15:40 17,1 C 18,1 C 15,5 C 21,2 C 21,2 C 4,1 C 53 % 64 % 100 % 1022,9 hPa 0,0 l/m 3,4 km/h (1 Bft) W-SW 247 5 min 0,8 UV-I 7,4 C 21,2 C 3,2 km/h (1 Bft)
30.09.2012 15:45 17,3 C 18,1 C 15,4 C 21,2 C 21,2 C 3,9 C 52 % 64 % 100 % 1022,1 hPa 0,0 l/m 3,4 km/h (1 Bft) W-SW 247 5 min 0,6 UV-I 7,3 C 21,2 C 1,8 km/h (1 Bft)
30.09.2012 15:50 17,9 C 18,1 C 15,5 C 21,2 C 21,2 C 3,3 C 51 % 64 % 87 % 1022,1 hPa 0,0 l/m 3,4 km/h (1 Bft) W-SW 247 5 min 0,6 UV-I 7,6 C 21,2 C 3,7 km/h (1 Bft)
30.09.2012 15:55 18,0 C 18,2 C 15,4 C 21,2 C 21,2 C 3,2 C 51 % 64 % 84 % 1022,1 hPa 0,0 l/m 2,9 km/h (1 Bft) W 270 0 min 0,6 UV-I 7,7 C 21,2 C 2,4 km/h (1 Bft)
30.09.2012 16:00 18,5 C 18,2 C 15,4 C 21,7 C 21,7 C 3,2 C 50 % 64 % 84 % 1022,1 hPa 0,0 l/m 1,9 km/h (1 Bft) S-SW 202 0 min 0,6 UV-I 7,9 C 21,7 C 1,6 km/h (1 Bft)
30.09.2012 16:05 18,9 C 18,2 C 15,5 C 21,9 C 21,9 C 3,0 C 50 % 65 % 79 % 1022,9 hPa 0,0 l/m 1,8 km/h (1 Bft) W-SW 247 0 min 0,5 UV-I 8,2 C 21,9 C 3,7 km/h (1 Bft)
30.09.2012 16:10 19,2 C 18,2 C 15,7 C 21,8 C 21,8 C 2,6 C 48 % 64 % 68 % 1022,9 hPa 0,0 l/m 3,4 km/h (1 Bft) S-SW 202 0 min 0,5 UV-I 7,9 C 21,8 C 7,7 km/h (2 Bft)
30.09.2012 16:15 19,0 C 18,2 C 15,6 C 21,3 C 21,3 C 2,3 C 47 % 64 % 61 % 1022,9 hPa 0,0 l/m 4,7 km/h (1 Bft) S 180 0 min 0,5 UV-I 7,4 C 21,3 C 5,1 km/h (1 Bft)
30.09.2012 16:20 18,7 C 18,2 C 15,6 C 21,1 C 21,1 C 2,4 C 48 % 64 % 63 % 1022,9 hPa 0,0 l/m 4,2 km/h (1 Bft) W-NW 292 0 min 0,4 UV-I 7,5 C 21,1 C 7,6 km/h (2 Bft)
30.09.2012 16:25 18,7 C 18,2 C 15,7 C 21,0 C 21,0 C 2,3 C 49 % 64 % 61 % 1021,9 hPa 0,0 l/m 3,5 km/h (1 Bft) W-SW 247 0 min 0,4 UV-I 7,8 C 21,0 C 3,7 km/h (1 Bft)
30.09.2012 16:30 18,5 C 18,3 C 15,6 C 21,1 C 21,1 C 2,6 C 48 % 63 % 68 % 1021,9 hPa 0,0 l/m 3,7 km/h (1 Bft) W-SW 247 0 min 0,4 UV-I 7,3 C 21,1 C 3,2 km/h (1 Bft)
30.09.2012 16:35 18,1 C 18,3 C 15,6 C 21,1 C 21,1 C 3,0 C 49 % 63 % 79 % 1021,9 hPa 0,0 l/m 3,4 km/h (1 Bft) S-SW 202 0 min 0,3 UV-I 7,2 C 21,1 C 2,3 km/h (1 Bft)
30.09.2012 16:40 17,7 C 18,3 C 15,6 C 21,3 C 21,3 C 3,6 C 50 % 64 % 95 % 1021,9 hPa 0,0 l/m 3,1 km/h (1 Bft) SW 225 5 min 0,3 UV-I 7,1 C 21,3 C 6,1 km/h (2 Bft)
30.09.2012 16:45 17,4 C 18,3 C 15,8 C 21,3 C 21,3 C 3,9 C 50 % 64 % 100 % 1021,9 hPa 0,0 l/m 2,9 km/h (1 Bft) SW 225 5 min 0,2 UV-I 6,9 C 21,3 C 5,3 km/h (1 Bft)
30.09.2012 16:50 17,1 C 18,3 C 15,7 C 21,4 C 21,4 C 4,3 C 51 % 63 % 100 % 1021,9 hPa 0,0 l/m 2,3 km/h (1 Bft) O-SO 112 5 min 0,2 UV-I 6,9 C 21,4 C 0,0 km/h (0 Bft)
30.09.2012 16:55 16,9 C 18,3 C 15,5 C 21,7 C 21,7 C 4,8 C 52 % 63 % 100 % 1021,9 hPa 0,0 l/m 1,1 km/h (1 Bft) W 270 5 min 0,1 UV-I 7,0 C 21,7 C 0,0 km/h (0 Bft)
30.09.2012 17:00 16,8 C 18,3 C 15,5 C 21,9 C 21,9 C 5,1 C 52 % 63 % 100 % 1021,9 hPa 0,0 l/m 1,0 km/h (0 Bft) NW 315 5 min 0,1 UV-I 6,9 C 21,9 C 0,0 km/h (0 Bft)
30.09.2012 17:05 16,7 C 18,3 C 15,5 C 21,9 C 21,9 C 5,2 C 52 % 63 % 100 % 1021,9 hPa 0,0 l/m 1,1 km/h (1 Bft) W 270 5 min 0,1 UV-I 6,8 C 21,9 C 3,5 km/h (1 Bft)
30.09.2012 17:10 16,6 C 18,3 C 15,3 C 21,8 C 21,8 C 5,2 C 52 % 64 % 100 % 1021,9 hPa 0,0 l/m 1,4 km/h (1 Bft) W-SW 247 5 min 0,0 UV-I 6,7 C 21,8 C 1,9 km/h (1 Bft)
30.09.2012 17:15 16,5 C 18,3 C 15,3 C 21,6 C 21,6 C 5,1 C 52 % 64 % 100 % 1021,9 hPa 0,0 l/m 2,4 km/h (1 Bft) W-SW 247 5 min 0,0 UV-I 6,6 C 21,6 C 4,5 km/h (1 Bft)
30.09.2012 17:20 16,5 C 18,3 C 15,2 C 21,2 C 21,2 C 4,7 C 52 % 64 % 100 % 1021,9 hPa 0,0 l/m 2,3 km/h (1 Bft) S 180 5 min 0,0 UV-I 6,6 C 21,2 C 1,9 km/h (1 Bft)
30.09.2012 17:25 16,3 C 18,3 C 15,2 C 21,1 C 21,1 C 4,8 C 53 % 64 % 100 % 1021,7 hPa 0,0 l/m 1,6 km/h (1 Bft) W-SW 247 5 min 0,0 UV-I 6,7 C 21,1 C 1,6 km/h (1 Bft)
30.09.2012 17:30 16,3 C 18,3 C 15,3 C 21,1 C 21,1 C 4,8 C 53 % 65 % 100 % 1021,7 hPa 0,0 l/m 1,0 km/h (0 Bft) SW 225 5 min 0,0 UV-I 6,7 C 21,1 C 2,1 km/h (1 Bft)
30.09.2012 17:35 16,1 C 18,4 C 15,3 C 21,0 C 21,0 C 4,9 C 54 % 65 % 100 % 1021,7 hPa 0,0 l/m 1,1 km/h (1 Bft) W-SW 247 5 min 0,0 UV-I 6,8 C 21,0 C 3,5 km/h (1 Bft)
30.09.2012 17:40 16,0 C 18,4 C 15,4 C 20,9 C 20,9 C 4,9 C 53 % 65 % 100 % 1021,7 hPa 0,0 l/m 1,0 km/h (0 Bft) SW 225 5 min 0,0 UV-I 6,4 C 20,9 C 0,0 km/h (0 Bft)
30.09.2012 17:45 16,0 C 18,4 C 15,2 C 20,8 C 20,8 C 4,8 C 54 % 64 % 100 % 1021,6 hPa 0,0 l/m 0,3 km/h (0 Bft) N-NW 337 5 min 0,0 UV-I 6,7 C 20,8 C 0,0 km/h (0 Bft)
30.09.2012 17:50 15,8 C 18,4 C 15,1 C 20,7 C 20,7 C 4,9 C 55 % 64 % 100 % 1021,6 hPa 0,0 l/m 0,0 km/h (0 Bft) W-SW 247 5 min 0,0 UV-I 6,8 C 20,7 C 0,0 km/h (0 Bft)
30.09.2012 17:55 15,8 C 18,4 C 15,1 C 20,5 C 20,5 C 4,7 C 54 % 65 % 100 % 1021,6 hPa 0,0 l/m 0,3 km/h (0 Bft) W-SW 247 5 min 0,0 UV-I 6,5 C 20,5 C 2,6 km/h (1 Bft)
30.09.2012 18:00 15,6 C 18,4 C 14,9 C 20,2 C 20,2 C 4,6 C 55 % 65 % 100 % 1021,6 hPa 0,0 l/m 0,3 km/h (0 Bft) NO 45 5 min 0,0 UV-I 6,6 C 20,2 C 0,0 km/h (0 Bft)
30.09.2012 18:05 15,5 C 18,4 C 14,5 C 19,9 C 19,9 C 4,4 C 56 % 65 % 100 % 1021,4 hPa 0,0 l/m 0,3 km/h (0 Bft) NO 45 5 min 0,0 UV-I 6,8 C 19,9 C 0,0 km/h (0 Bft)
30.09.2012 18:10 15,2 C 18,4 C 14,3 C 19,5 C 19,5 C 4,3 C 58 % 67 % 100 % 1021,4 hPa 0,0 l/m 0,0 km/h (0 Bft) O-NO 67 5 min 0,0 UV-I 7,0 C 19,5 C 0,0 km/h (0 Bft)
30.09.2012 18:15 15,1 C 18,4 C 14,1 C 19,1 C 19,1 C 4,0 C 58 % 68 % 100 % 1021,4 hPa 0,0 l/m 0,0 km/h (0 Bft) O-NO 67 5 min 0,0 UV-I 6,9 C 19,1 C 0,0 km/h (0 Bft)
30.09.2012 18:20 14,7 C 18,4 C 13,9 C 18,3 C 18,3 C 3,6 C 60 % 69 % 95 % 1021,4 hPa 0,0 l/m 0,0 km/h (0 Bft) O-NO 67 5 min 0,0 UV-I 7,0 C 18,3 C 0,0 km/h (0 Bft)
30.09.2012 18:25 14,5 C 18,4 C 13,6 C 17,8 C 17,8 C 3,3 C 61 % 70 % 87 % 1021,4 hPa 0,0 l/m 0,0 km/h (0 Bft) O-NO 67 5 min 0,0 UV-I 7,1 C 17,8 C 0,0 km/h (0 Bft)
30.09.2012 18:30 14,3 C 18,4 C 13,5 C 17,1 C 17,1 C 2,8 C 63 % 71 % 74 % 1021,4 hPa 0,0 l/m 0,0 km/h (0 Bft) N 360 5 min 0,0 UV-I 7,4 C 17,1 C 0,0 km/h (0 Bft)
30.09.2012 18:35 14,1 C 18,4 C 13,5 C 16,7 C 16,7 C 2,6 C 63 % 71 % 68 % 1021,4 hPa 0,0 l/m 0,0 km/h (0 Bft) O 90 5 min 0,0 UV-I 7,2 C 16,7 C 0,0 km/h (0 Bft)
30.09.2012 18:46 13,3 C 18,5 C 12,6 C 14,0 C 14,0 C 0,7 C 65 % 72 % 0 % 1021,4 hPa 0,0 l/m 0,0 km/h (0 Bft) N 0 0 min 0,0 UV-I 6,9 C 14,0 C 0,0 km/h (0 Bft)
30.09.2012 18:55 13,1 C 18,5 C 12,3 C 13,1 C 13,1 C 0,0 C 66 % 74 % 0 % 1021,4 hPa 0,0 l/m 0,0 km/h (0 Bft) NO 45 0 min 0,0 UV-I 6,9 C 13,1 C 0,0 km/h (0 Bft)
30.09.2012 19:00 12,6 C 18,5 C 12,0 C 12,4 C 12,0 C 0,0 C 66 % 74 % 0 % 1021,4 hPa 0,0 l/m 0,0 km/h (0 Bft) NO 45 0 min 0,0 UV-I 6,4 C 12,0 C 0,0 km/h (0 Bft)
30.09.2012 19:05 12,4 C 18,5 C 11,9 C 12,1 C 11,5 C 0,0 C 67 % 75 % 0 % 1021,2 hPa 0,0 l/m 0,0 km/h (0 Bft) O-NO 67 0 min 0,0 UV-I 6,4 C 11,5 C 0,0 km/h (0 Bft)
30.09.2012 19:10 12,1 C 18,5 C 11,5 C 11,6 C 10,7 C 0,0 C 69 % 76 % 0 % 1021,2 hPa 0,0 l/m 0,0 km/h (0 Bft) O-SO 112 0 min 0,0 UV-I 6,6 C 10,7 C 0,0 km/h (0 Bft)
30.09.2012 19:15 11,9 C 18,5 C 11,5 C 11,3 C 10,2 C 0,0 C 70 % 77 % 0 % 1021,2 hPa 0,0 l/m 0,0 km/h (0 Bft) O-NO 67 0 min 0,0 UV-I 6,6 C 10,2 C 0,0 km/h (0 Bft)
30.09.2012 19:20 11,5 C 18,5 C 11,3 C 10,9 C 9,7 C 0,0 C 71 % 78 % 0 % 1021,2 hPa 0,0 l/m 0,0 km/h (0 Bft) O-NO 67 0 min 0,0 UV-I 6,4 C 9,7 C 0,0 km/h (0 Bft)
30.09.2012 19:25 11,3 C 18,5 C 11,1 C 10,6 C 9,3 C 0,0 C 72 % 78 % 0 % 1021,9 hPa 0,0 l/m 0,0 km/h (0 Bft) O-NO 67 0 min 0,0 UV-I 6,4 C 9,3 C 0,0 km/h (0 Bft)
30.09.2012 19:30 11,1 C 18,5 C 10,8 C 10,4 C 8,9 C 0,0 C 73 % 79 % 0 % 1021,9 hPa 0,0 l/m 0,0 km/h (0 Bft) SO 135 0 min 0,0 UV-I 6,4 C 8,9 C 0,0 km/h (0 Bft)
30.09.2012 19:35 10,9 C 18,7 C 10,7 C 10,2 C 8,8 C 0,0 C 74 % 79 % 0 % 1021,9 hPa 0,0 l/m 0,0 km/h (0 Bft) O-NO 67 0 min 0,0 UV-I 6,5 C 8,8 C 0,0 km/h (0 Bft)
30.09.2012 19:40 10,6 C 18,7 C 10,4 C 9,9 C 8,6 C 0,0 C 75 % 80 % 0 % 1021,9 hPa 0,0 l/m 0,0 km/h (0 Bft) N-NO 22 0 min 0,0 UV-I 6,4 C 8,6 C 0,0 km/h (0 Bft)
30.09.2012 19:45 10,4 C 18,7 C 10,3 C 9,7 C 8,4 C 0,0 C 76 % 80 % 0 % 1021,6 hPa 0,0 l/m 0,0 km/h (0 Bft) O-NO 67 0 min 0,0 UV-I 6,4 C 8,4 C 0,0 km/h (0 Bft)
30.09.2012 19:50 10,3 C 18,7 C 10,0 C 9,6 C 8,3 C 0,0 C 77 % 81 % 0 % 1021,6 hPa 0,0 l/m 0,0 km/h (0 Bft) N-NW 337 0 min 0,0 UV-I 6,4 C 8,3 C 0,0 km/h (0 Bft)
30.09.2012 19:55 10,0 C 18,7 C 10,0 C 9,3 C 8,0 C 0,0 C 77 % 82 % 0 % 1021,6 hPa 0,0 l/m 0,0 km/h (0 Bft) SO 135 0 min 0,0 UV-I 6,2 C 8,0 C 0,0 km/h (0 Bft)
30.09.2012 20:00 9,7 C 18,8 C 9,9 C 9,1 C 8,0 C 0,0 C 78 % 82 % 0 % 1021,6 hPa 0,0 l/m 0,0 km/h (0 Bft) NO 45 0 min 0,0 UV-I 6,1 C 8,0 C 0,0 km/h (0 Bft)
30.09.2012 20:05 9,5 C 18,7 C 9,7 C 9,0 C 7,9 C 0,0 C 78 % 82 % 0 % 1021,4 hPa 0,0 l/m 0,0 km/h (0 Bft) O-NO 67 0 min 0,0 UV-I 5,9 C 7,9 C 0,0 km/h (0 Bft)
30.09.2012 20:10 9,2 C 18,8 C 9,6 C 8,7 C 7,6 C 0,0 C 79 % 82 % 0 % 1021,4 hPa 0,0 l/m 0,0 km/h (0 Bft) NW 315 0 min 0,0 UV-I 5,8 C 7,6 C 0,0 km/h (0 Bft)
30.09.2012 20:15 9,0 C 18,8 C 9,6 C 8,5 C 7,5 C 0,0 C 79 % 83 % 0 % 1021,4 hPa 0,0 l/m 0,0 km/h (0 Bft) N-NW 337 0 min 0,0 UV-I 5,6 C 7,5 C 0,0 km/h (0 Bft)
30.09.2012 20:20 8,9 C 18,8 C 9,5 C 8,4 C 7,3 C 0,0 C 79 % 83 % 0 % 1021,4 hPa 0,0 l/m 0,0 km/h (0 Bft) N-NW 337 0 min 0,0 UV-I 5,5 C 7,3 C 0,0 km/h (0 Bft)
30.09.2012 20:25 8,7 C 18,8 C 9,3 C 8,2 C 7,2 C 0,0 C 80 % 84 % 0 % 1021,4 hPa 0,0 l/m 0,0 km/h (0 Bft) NW 315 0 min 0,0 UV-I 5,4 C 7,2 C 0,0 km/h (0 Bft)
30.09.2012 20:30 8,4 C 18,8 C 9,2 C 7,9 C 7,0 C 0,0 C 80 % 84 % 0 % 1021,4 hPa 0,0 l/m 0,0 km/h (0 Bft) W-SW 247 0 min 0,0 UV-I 5,2 C 7,0 C 0,0 km/h (0 Bft)
30.09.2012 20:35 8,2 C 18,8 C 9,2 C 7,8 C 6,9 C 0,0 C 80 % 84 % 0 % 1021,4 hPa 0,0 l/m 0,0 km/h (0 Bft) S-SO 157 0 min 0,0 UV-I 5,0 C 6,9 C 0,0 km/h (0 Bft)
30.09.2012 20:40 8,0 C 18,8 C 9,0 C 7,6 C 6,9 C 0,0 C 81 % 84 % 0 % 1021,4 hPa 0,0 l/m 0,0 km/h (0 Bft) O-SO 112 0 min 0,0 UV-I 4,9 C 6,9 C 0,0 km/h (0 Bft)
30.09.2012 20:45 7,9 C 18,8 C 8,9 C 7,6 C 6,9 C 0,0 C 82 % 84 % 0 % 1021,6 hPa 0,0 l/m 0,0 km/h (0 Bft) O 90 0 min 0,0 UV-I 5,0 C 6,9 C 0,0 km/h (0 Bft)
30.09.2012 20:50 7,6 C 18,8 C 8,9 C 7,3 C 6,7 C 0,0 C 82 % 85 % 0 % 1021,6 hPa 0,0 l/m 0,0 km/h (0 Bft) O 90 0 min 0,0 UV-I 4,7 C 6,7 C 0,0 km/h (0 Bft)
30.09.2012 20:55 7,5 C 18,8 C 8,7 C 7,2 C 6,7 C 0,0 C 82 % 85 % 0 % 1021,6 hPa 0,0 l/m 0,0 km/h (0 Bft) O 90 0 min 0,0 UV-I 4,6 C 6,7 C 0,0 km/h (0 Bft)
30.09.2012 21:00 7,3 C 18,8 C 8,7 C 7,1 C 6,7 C 0,0 C 83 % 86 % 0 % 1021,6 hPa 0,0 l/m 0,0 km/h (0 Bft) O 90 0 min 0,0 UV-I 4,6 C 6,7 C 0,0 km/h (0 Bft)
30.09.2012 21:05 7,2 C 18,8 C 8,5 C 7,0 C 6,6 C 0,0 C 83 % 85 % 0 % 1021,7 hPa 0,0 l/m 0,0 km/h (0 Bft) O 90 0 min 0,0 UV-I 4,5 C 6,6 C 0,0 km/h (0 Bft)
30.09.2012 21:10 7,0 C 18,7 C 8,4 C 6,8 C 6,4 C 0,0 C 82 % 86 % 0 % 1021,7 hPa 0,0 l/m 0,0 km/h (0 Bft) W-SW 247 0 min 0,0 UV-I 4,1 C 6,4 C 0,0 km/h (0 Bft)
30.09.2012 21:15 6,9 C 18,7 C 8,3 C 6,7 C 6,4 C 0,0 C 83 % 86 % 0 % 1021,7 hPa 0,0 l/m 0,0 km/h (0 Bft) N-NO 22 0 min 0,0 UV-I 4,2 C 6,4 C 0,0 km/h (0 Bft)
30.09.2012 21:20 6,9 C 18,9 C 8,3 C 6,7 C 6,4 C 0,0 C 83 % 86 % 0 % 1021,7 hPa 0,0 l/m 0,0 km/h (0 Bft) N-NW 337 0 min 0,0 UV-I 4,2 C 6,4 C 0,0 km/h (0 Bft)
30.09.2012 21:25 6,7 C 18,9 C 8,3 C 6,5 C 6,2 C 0,0 C 83 % 86 % 0 % 1021,8 hPa 0,0 l/m 0,0 km/h (0 Bft) NW 315 0 min 0,0 UV-I 4,0 C 6,2 C 0,0 km/h (0 Bft)
30.09.2012 21:30 6,7 C 18,8 C 8,1 C 6,5 C 6,0 C 0,0 C 83 % 86 % 0 % 1021,8 hPa 0,0 l/m 0,0 km/h (0 Bft) W 270 0 min 0,0 UV-I 4,0 C 6,0 C 0,0 km/h (0 Bft)
30.09.2012 21:35 6,5 C 18,9 C 8,0 C 6,3 C 5,9 C 0,0 C 83 % 86 % 0 % 1021,8 hPa 0,0 l/m 0,0 km/h (0 Bft) NO 45 0 min 0,0 UV-I 3,8 C 5,9 C 0,0 km/h (0 Bft)
30.09.2012 21:40 6,4 C 18,9 C 7,9 C 6,3 C 6,0 C 0,0 C 84 % 86 % 0 % 1021,8 hPa 0,0 l/m 0,0 km/h (0 Bft) NO 45 0 min 0,0 UV-I 3,9 C 6,0 C 0,0 km/h (0 Bft)
30.09.2012 21:45 6,3 C 18,9 C 7,8 C 6,2 C 6,0 C 0,0 C 84 % 86 % 0 % 1021,7 hPa 0,0 l/m 0,0 km/h (0 Bft) N-NO 22 0 min 0,0 UV-I 3,8 C 6,0 C 0,0 km/h (0 Bft)
30.09.2012 21:50 6,3 C 18,9 C 7,7 C 6,2 C 6,0 C 0,0 C 85 % 87 % 0 % 1021,7 hPa 0,0 l/m 0,0 km/h (0 Bft) N-NW 337 0 min 0,0 UV-I 4,0 C 6,0 C 0,0 km/h (0 Bft)
30.09.2012 21:55 6,1 C 18,9 C 7,7 C 6,0 C 5,9 C 0,0 C 85 % 87 % 0 % 1021,7 hPa 0,0 l/m 0,0 km/h (0 Bft) N-NW 337 0 min 0,0 UV-I 3,8 C 5,9 C 0,0 km/h (0 Bft)
30.09.2012 22:00 6,0 C 18,9 C 7,6 C 6,0 C 5,9 C 0,0 C 84 % 87 % 0 % 1021,7 hPa 0,0 l/m 0,0 km/h (0 Bft) N 360 0 min 0,0 UV-I 3,5 C 5,9 C 0,0 km/h (0 Bft)
30.09.2012 22:05 6,0 C 18,9 C 7,7 C 6,0 C 5,9 C 0,0 C 85 % 87 % 0 % 1021,6 hPa 0,0 l/m 0,0 km/h (0 Bft) W 270 0 min 0,0 UV-I 3,7 C 5,9 C 0,0 km/h (0 Bft)
30.09.2012 22:10 5,9 C 18,9 C 7,5 C 5,9 C 5,8 C 0,0 C 85 % 87 % 0 % 1021,6 hPa 0,0 l/m 0,0 km/h (0 Bft) W-SW 247 0 min 0,0 UV-I 3,6 C 5,8 C 0,0 km/h (0 Bft)
30.09.2012 22:15 5,9 C 18,8 C 7,5 C 5,8 C 5,7 C 0,0 C 85 % 87 % 0 % 1021,6 hPa 0,0 l/m 0,0 km/h (0 Bft) W-SW 247 0 min 0,0 UV-I 3,6 C 5,7 C 0,0 km/h (0 Bft)
30.09.2012 22:20 5,7 C 18,8 C 7,5 C 5,7 C 5,7 C 0,0 C 85 % 87 % 0 % 1021,6 hPa 0,0 l/m 0,0 km/h (0 Bft) W 270 0 min 0,0 UV-I 3,4 C 5,7 C 0,0 km/h (0 Bft)
30.09.2012 22:25 5,7 C 18,8 C 7,4 C 5,7 C 5,7 C 0,0 C 86 % 87 % 0 % 1022,0 hPa 0,0 l/m 0,0 km/h (0 Bft) NW 315 0 min 0,0 UV-I 3,5 C 5,7 C 0,0 km/h (0 Bft)
30.09.2012 22:30 5,6 C 18,8 C 7,5 C 5,7 C 5,7 C 0,1 C 86 % 88 % 0 % 1022,0 hPa 0,0 l/m 0,0 km/h (0 Bft) NW 315 0 min 0,0 UV-I 3,4 C 5,7 C 0,0 km/h (0 Bft)
30.09.2012 22:35 5,6 C 18,8 C 7,3 C 5,7 C 5,7 C 0,1 C 86 % 88 % 0 % 1022,0 hPa 0,0 l/m 0,0 km/h (0 Bft) NO 45 0 min 0,0 UV-I 3,4 C 5,7 C 0,0 km/h (0 Bft)
30.09.2012 22:40 5,7 C 18,9 C 7,4 C 5,9 C 5,9 C 0,2 C 87 % 88 % 0 % 1022,0 hPa 0,0 l/m 0,0 km/h (0 Bft) O-NO 67 0 min 0,0 UV-I 3,7 C 5,9 C 0,0 km/h (0 Bft)
30.09.2012 22:45 5,8 C 18,9 C 7,4 C 5,9 C 5,9 C 0,1 C 87 % 88 % 0 % 1021,6 hPa 0,0 l/m 0,0 km/h (0 Bft) O-NO 67 0 min 0,0 UV-I 3,8 C 5,9 C 0,0 km/h (0 Bft)
30.09.2012 22:50 5,9 C 18,9 C 7,3 C 6,1 C 6,1 C 0,2 C 87 % 88 % 0 % 1021,6 hPa 0,0 l/m 0,0 km/h (0 Bft) O-NO 67 0 min 0,0 UV-I 3,9 C 6,1 C 0,0 km/h (0 Bft)
30.09.2012 22:55 5,8 C 18,8 C 7,3 C 6,1 C 6,1 C 0,3 C 87 % 88 % 0 % 1021,6 hPa 0,0 l/m 0,0 km/h (0 Bft) W-SW 247 0 min 0,0 UV-I 3,8 C 6,1 C 0,0 km/h (0 Bft)
30.09.2012 23:00 5,6 C 18,7 C 7,3 C 5,9 C 5,9 C 0,3 C 87 % 88 % 0 % 1021,6 hPa 0,0 l/m 0,0 km/h (0 Bft) SW 225 0 min 0,0 UV-I 3,6 C 5,9 C 0,0 km/h (0 Bft)
30.09.2012 23:05 5,7 C 18,8 C 7,2 C 5,9 C 5,9 C 0,2 C 87 % 88 % 0 % 1021,5 hPa 0,0 l/m 0,0 km/h (0 Bft) N-NW 337 0 min 0,0 UV-I 3,7 C 5,9 C 0,0 km/h (0 Bft)
30.09.2012 23:10 5,6 C 18,8 C 7,2 C 5,9 C 5,9 C 0,3 C 87 % 88 % 0 % 1021,5 hPa 0,0 l/m 0,0 km/h (0 Bft) W-SW 247 0 min 0,0 UV-I 3,6 C 5,9 C 0,0 km/h (0 Bft)
30.09.2012 23:15 5,6 C 18,8 C 7,2 C 5,8 C 5,8 C 0,2 C 87 % 88 % 0 % 1021,5 hPa 0,0 l/m 0,0 km/h (0 Bft) W 270 0 min 0,0 UV-I 3,6 C 5,8 C 0,0 km/h (0 Bft)
30.09.2012 23:20 5,6 C 18,8 C 7,2 C 5,9 C 5,9 C 0,3 C 87 % 88 % 0 % 1021,5 hPa 0,0 l/m 0,0 km/h (0 Bft) NO 45 0 min 0,0 UV-I 3,6 C 5,9 C 0,0 km/h (0 Bft)
30.09.2012 23:25 5,6 C 18,8 C 7,3 C 5,8 C 5,8 C 0,2 C 87 % 89 % 0 % 1021,6 hPa 0,0 l/m 0,0 km/h (0 Bft) NW 315 0 min 0,0 UV-I 3,6 C 5,8 C 0,0 km/h (0 Bft)
30.09.2012 23:30 5,6 C 18,8 C 7,2 C 5,8 C 5,8 C 0,2 C 87 % 89 % 0 % 1021,6 hPa 0,0 l/m 0,0 km/h (0 Bft) N 360 0 min 0,0 UV-I 3,6 C 5,8 C 0,0 km/h (0 Bft)
30.09.2012 23:35 5,6 C 18,8 C 7,1 C 5,8 C 5,8 C 0,2 C 88 % 88 % 0 % 1021,6 hPa 0,0 l/m 0,0 km/h (0 Bft) O 90 0 min 0,0 UV-I 3,8 C 5,8 C 0,0 km/h (0 Bft)
30.09.2012 23:40 5,6 C 18,8 C 7,0 C 5,9 C 5,9 C 0,3 C 88 % 89 % 0 % 1021,6 hPa 0,0 l/m 0,0 km/h (0 Bft) NW 315 0 min 0,0 UV-I 3,8 C 5,9 C 0,0 km/h (0 Bft)
30.09.2012 23:45 5,5 C 18,8 C 7,0 C 5,8 C 5,8 C 0,3 C 88 % 89 % 0 % 1021,6 hPa 0,0 l/m 0,0 km/h (0 Bft) NW 315 0 min 0,0 UV-I 3,7 C 5,8 C 0,0 km/h (0 Bft)
30.09.2012 23:50 5,5 C 18,7 C 7,1 C 5,7 C 5,7 C 0,2 C 88 % 89 % 0 % 1021,6 hPa 0,0 l/m 0,0 km/h (0 Bft) NW 315 0 min 0,0 UV-I 3,7 C 5,7 C 0,0 km/h (0 Bft)
30.09.2012 23:55 5,5 C 18,7 C 7,0 C 5,6 C 5,6 C 0,1 C 88 % 89 % 0 % 1021,6 hPa 0,0 l/m 0,0 km/h (0 Bft) NW 315 0 min 0,0 UV-I 3,7 C 5,6 C 0,0 km/h (0 Bft)
_ Min-Zeit 07:40 11:35 07:30 07:35 07:30 00:00 16:15 16:30 00:00 00:00 - 00:00 - - - 00:00 07:40 07:30 00:00
Minimum _ 3,9 C 17,8 C 5,5 C 3,9 C 3,8 C 0,0 C 47 % 63 % 0 % 1019,3 hPa - 0,0 km/h (0 Bft) - - - 0,0 UV-I 2,3 C 3,8 C 0,0 km/h (0 Bft)
_ Max-Zeit 16:10 00:55 16:45 15:00 15:00 14:20 09:55 08:50 08:10 11:25 00:00 10:40 - - 12:55 12:55 16:05 15:00 14:20
Maximum _ 19,2 C 19,6 C 15,8 C 22,5 C 22,5 C 7,4 C 92 % 92 % 100 % 1024,6 hPa 0,0 l/m 5,0 km/h
SW (1 Bft)
- - 14 min 2,5 UV-I 8,2 C 22,5 C 12,7 km/h
W-SW (3 Bft)
Durchschnitt _ 9,3 C 18,6 C 9,7 C 10,8 C 10,6 C 1,6 C 77 % 82 % 32 % 1022,1 hPa #0,0 l/m 1,0 km/h (0 Bft) W-SW - #6:00 h 0,9 UV-I 5,1 C 10,6 C 1,5 km/h (1 Bft)
2012 www.wetterstation-wechselburg.de